Time,TemperatureF,DewpointF,PressureIn,WindDirection,WindDirectionDegrees,WindSpeedMPH,WindSpeedGustMPH,Humidity,HourlyPrecipIn,Conditions,Clouds,dailyrainin,SoftwareType,DateUTC
2013-02-24 00:00:00,29.0,28.0,30.00,WSW,247,1.0,6.0,94,0.00,,,0.00,Rainwise IP-100,2013-02-24 05:00:00,
2013-02-24 00:05:00,29.0,28.0,30.00,WSW,247,2.0,4.0,94,0.00,,,0.00,Rainwise IP-100,2013-02-24 05:05:00,
2013-02-24 00:10:00,29.0,28.0,30.00,WSW,247,0.0,3.0,94,0.00,,,0.00,Rainwise IP-100,2013-02-24 05:10:00,
2013-02-24 00:15:00,29.0,28.0,29.99,WSW,247,3.0,3.0,94,0.00,,,0.00,Rainwise IP-100,2013-02-24 05:15:00,
2013-02-24 00:20:00,29.0,28.0,29.99,WSW,247,3.0,4.0,94,0.00,,,0.00,Rainwise IP-100,2013-02-24 05:20:00,
2013-02-24 00:25:00,29.0,28.0,29.99,SW,225,3.0,7.0,94,0.00,,,0.00,Rainwise IP-100,2013-02-24 05:25:00,
2013-02-24 00:30:00,29.0,28.0,29.99,SW,225,6.0,7.0,94,0.00,,,0.00,Rainwise IP-100,2013-02-24 05:30:00,
2013-02-24 00:35:00,29.0,28.0,29.98,WSW,247,5.0,6.0,94,0.00,,,0.00,Rainwise IP-100,2013-02-24 05:35:00,
2013-02-24 00:40:00,29.0,28.0,29.98,SW,225,5.0,6.0,94,0.00,,,0.00,Rainwise IP-100,2013-02-24 05:40:00,
2013-02-24 00:45:00,29.0,28.0,29.98,SW,225,3.0,6.0,94,0.00,,,0.00,Rainwise IP-100,2013-02-24 05:45:00,
2013-02-24 00:50:00,29.0,28.0,29.98,SW,225,0.0,4.0,94,0.00,,,0.00,Rainwise IP-100,2013-02-24 05:50:00,
2013-02-24 00:55:00,29.0,28.0,29.98,SW,225,0.0,0.0,94,0.00,,,0.00,Rainwise IP-100,2013-02-24 05:55:00,
2013-02-24 01:00:00,28.0,26.0,29.98,SW,225,0.0,0.0,94,0.00,,,0.00,Rainwise IP-100,2013-02-24 06:00:00,
2013-02-24 01:05:00,28.0,26.0,29.98,SW,225,0.0,0.0,94,0.00,,,0.00,Rainwise IP-100,2013-02-24 06:05:00,
2013-02-24 01:10:00,28.0,26.0,29.98,West,270,0.0,0.0,94,0.00,,,0.00,Rainwise IP-100,2013-02-24 06:10:00,
2013-02-24 01:15:00,28.0,26.0,29.98,West,270,0.0,1.0,94,0.00,,,0.00,Rainwise IP-100,2013-02-24 06:15:00,
2013-02-24 01:20:00,28.0,26.0,29.98,West,270,0.0,0.0,94,0.00,,,0.00,Rainwise IP-100,2013-02-24 06:20:00,
2013-02-24 01:25:00,28.0,26.0,29.98,West,270,0.0,0.0,94,0.00,,,0.00,Rainwise IP-100,2013-02-24 06:25:00,
2013-02-24 01:30:00,28.0,26.0,29.98,West,270,0.0,0.0,94,0.00,,,0.00,Rainwise IP-100,2013-02-24 06:30:00,
2013-02-24 01:35:00,28.0,26.0,29.98,West,270,0.0,0.0,94,0.00,,,0.00,Rainwise IP-100,2013-02-24 06:35:00,
2013-02-24 01:40:00,28.0,26.0,29.98,West,270,0.0,0.0,94,0.00,,,0.00,Rainwise IP-100,2013-02-24 06:40:00,
2013-02-24 01:45:00,28.0,26.0,29.98,West,270,0.0,0.0,94,0.00,,,0.00,Rainwise IP-100,2013-02-24 06:45:00,
2013-02-24 01:50:00,28.0,26.0,29.98,West,270,0.0,0.0,94,0.00,,,0.00,Rainwise IP-100,2013-02-24 06:50:00,
2013-02-24 01:55:00,28.0,26.0,29.98,West,270,0.0,0.0,94,0.00,,,0.00,Rainwise IP-100,2013-02-24 06:55:00,
2013-02-24 02:00:00,28.0,26.0,29.98,West,270,0.0,0.0,94,0.00,,,0.00,Rainwise IP-100,2013-02-24 07:00:00,
2013-02-24 02:05:00,28.0,26.0,29.97,West,270,0.0,0.0,94,0.00,,,0.00,Rainwise IP-100,2013-02-24 07:05:00,
2013-02-24 02:08:00,28.0,26.0,29.97,West,270,0.0,0.0,94,0.00,,,0.00,Rainwise IP-100,2013-02-24 07:08:00,
2013-02-24 02:13:00,28.0,26.0,29.96,West,270,0.0,0.0,94,0.00,,,0.00,Rainwise IP-100,2013-02-24 07:13:00,
2013-02-24 02:18:00,28.0,26.0,29.96,West,270,0.0,1.0,94,0.00,,,0.00,Rainwise IP-100,2013-02-24 07:18:00,
2013-02-24 02:23:00,28.0,26.0,29.95,West,270,0.0,0.0,94,0.00,,,0.00,Rainwise IP-100,2013-02-24 07:23:00,
2013-02-24 02:28:00,28.0,26.0,29.95,West,270,0.0,0.0,94,0.00,,,0.00,Rainwise IP-100,2013-02-24 07:28:00,
2013-02-24 02:33:00,28.0,26.0,29.95,West,270,0.0,0.0,94,0.00,,,0.00,Rainwise IP-100,2013-02-24 07:33:00,
2013-02-24 02:38:00,28.0,26.0,29.95,West,270,0.0,0.0,94,0.00,,,0.00,Rainwise IP-100,2013-02-24 07:38:00,
2013-02-24 02:43:00,28.0,26.0,29.95,West,270,0.0,0.0,94,0.00,,,0.00,Rainwise IP-100,2013-02-24 07:43:00,
2013-02-24 02:48:00,28.0,26.0,29.95,West,270,0.0,0.0,94,0.00,,,0.00,Rainwise IP-100,2013-02-24 07:48:00,
2013-02-24 02:52:00,28.0,26.0,29.94,West,270,1.0,1.0,94,0.00,,,0.00,Rainwise IP-100,2013-02-24 07:52:00,
2013-02-24 02:57:00,28.0,26.0,29.94,West,270,1.0,1.0,94,0.00,,,0.00,Rainwise IP-100,2013-02-24 07:57:00,
2013-02-24 03:02:00,28.0,26.0,29.93,West,270,1.0,2.0,94,0.00,,,0.00,Rainwise IP-100,2013-02-24 08:02:00,
2013-02-24 03:07:00,28.0,26.0,29.93,West,270,0.0,2.0,94,0.00,,,0.00,Rainwise IP-100,2013-02-24 08:07:00,
2013-02-24 03:12:00,28.0,26.0,29.93,West,270,0.0,0.0,94,0.00,,,0.00,Rainwise IP-100,2013-02-24 08:12:00,
2013-02-24 03:17:00,28.0,26.0,29.93,West,270,0.0,1.0,94,0.00,,,0.00,Rainwise IP-100,2013-02-24 08:17:00,
2013-02-24 03:22:00,28.0,26.0,29.93,West,270,0.0,0.0,94,0.00,,,0.00,Rainwise IP-100,2013-02-24 08:22:00,
2013-02-24 03:27:00,28.0,26.0,29.93,West,270,0.0,0.0,94,0.00,,,0.00,Rainwise IP-100,2013-02-24 08:27:00,
2013-02-24 03:32:00,28.0,26.0,29.93,West,270,0.0,1.0,94,0.00,,,0.00,Rainwise IP-100,2013-02-24 08:32:00,
2013-02-24 03:37:00,28.0,26.0,29.93,West,270,2.0,2.0,94,0.00,,,0.00,Rainwise IP-100,2013-02-24 08:37:00,
2013-02-24 03:42:00,28.0,26.0,29.93,West,270,2.0,2.0,94,0.00,,,0.00,Rainwise IP-100,2013-02-24 08:42:00,
2013-02-24 03:47:00,28.0,26.0,29.93,West,270,2.0,3.0,94,0.00,,,0.00,Rainwise IP-100,2013-02-24 08:47:00,
2013-02-24 03:52:00,28.0,26.0,29.92,West,270,1.0,2.0,94,0.00,,,0.00,Rainwise IP-100,2013-02-24 08:52:00,
2013-02-24 03:57:00,28.0,26.0,29.92,West,270,0.0,1.0,94,0.00,,,0.00,Rainwise IP-100,2013-02-24 08:57:00,
2013-02-24 04:02:00,28.0,26.0,29.92,West,270,0.0,0.0,94,0.00,,,0.00,Rainwise IP-100,2013-02-24 09:02:00,
2013-02-24 04:07:00,28.0,26.0,29.92,West,270,0.0,2.0,94,0.00,,,0.00,Rainwise IP-100,2013-02-24 09:07:00,
2013-02-24 04:12:00,28.0,26.0,29.92,West,270,0.0,1.0,94,0.00,,,0.00,Rainwise IP-100,2013-02-24 09:12:00,
2013-02-24 04:17:00,28.0,26.0,29.92,NW,315,0.0,1.0,94,0.00,,,0.00,Rainwise IP-100,2013-02-24 09:17:00,
2013-02-24 04:22:00,28.0,26.0,29.92,NW,315,0.0,1.0,94,0.00,,,0.00,Rainwise IP-100,2013-02-24 09:22:00,
2013-02-24 04:27:00,28.0,26.0,29.92,NW,315,0.0,0.0,94,0.00,,,0.00,Rainwise IP-100,2013-02-24 09:27:00,
2013-02-24 04:32:00,28.0,26.0,29.92,NW,315,0.0,0.0,94,0.00,,,0.00,Rainwise IP-100,2013-02-24 09:32:00,
2013-02-24 04:37:00,28.0,26.0,29.92,NW,315,1.0,1.0,94,0.00,,,0.00,Rainwise IP-100,2013-02-24 09:37:00,
2013-02-24 04:42:00,28.0,26.0,29.92,NW,315,0.0,1.0,94,0.00,,,0.00,Rainwise IP-100,2013-02-24 09:42:00,
2013-02-24 04:47:00,28.0,26.0,29.92,NW,315,0.0,0.0,94,0.00,,,0.00,Rainwise IP-100,2013-02-24 09:47:00,
2013-02-24 04:52:00,28.0,26.0,29.92,NW,315,0.0,0.0,94,0.00,,,0.00,Rainwise IP-100,2013-02-24 09:52:00,
2013-02-24 04:57:00,28.0,26.0,29.92,NW,315,0.0,0.0,94,0.00,,,0.00,Rainwise IP-100,2013-02-24 09:57:00,
2013-02-24 05:02:00,28.0,26.0,29.92,NW,315,0.0,0.0,94,0.00,,,0.00,Rainwise IP-100,2013-02-24 10:02:00,
2013-02-24 05:07:00,28.0,26.0,29.92,NW,315,0.0,1.0,94,0.00,,,0.00,Rainwise IP-100,2013-02-24 10:07:00,
2013-02-24 05:12:00,28.0,26.0,29.92,NW,315,0.0,0.0,94,0.00,,,0.00,Rainwise IP-100,2013-02-24 10:12:00,
2013-02-24 05:17:00,28.0,26.0,29.92,NW,315,0.0,1.0,94,0.00,,,0.00,Rainwise IP-100,2013-02-24 10:17:00,
2013-02-24 05:22:00,28.0,26.0,29.92,NW,315,0.0,0.0,94,0.00,,,0.00,Rainwise IP-100,2013-02-24 10:22:00,
2013-02-24 05:27:00,28.0,26.0,29.92,NW,315,0.0,0.0,94,0.00,,,0.00,Rainwise IP-100,2013-02-24 10:27:00,
2013-02-24 05:32:00,28.0,26.0,29.92,NW,315,1.0,1.0,94,0.00,,,0.00,Rainwise IP-100,2013-02-24 10:32:00,
2013-02-24 05:37:00,28.0,26.0,29.92,NW,315,0.0,2.0,94,0.00,,,0.00,Rainwise IP-100,2013-02-24 10:37:00,
2013-02-24 05:42:00,28.0,26.0,29.92,NW,315,0.0,1.0,94,0.00,,,0.00,Rainwise IP-100,2013-02-24 10:42:00,
2013-02-24 05:47:00,28.0,26.0,29.92,NW,315,0.0,2.0,94,0.00,,,0.00,Rainwise IP-100,2013-02-24 10:47:00,
2013-02-24 05:52:00,28.0,26.0,29.92,NW,315,0.0,0.0,94,0.00,,,0.00,Rainwise IP-100,2013-02-24 10:52:00,
2013-02-24 05:57:00,28.0,26.0,29.92,NW,315,0.0,0.0,94,0.00,,,0.00,Rainwise IP-100,2013-02-24 10:57:00,
2013-02-24 06:02:00,28.0,26.0,29.92,NW,315,0.0,1.0,94,0.00,,,0.00,Rainwise IP-100,2013-02-24 11:02:00,
2013-02-24 06:07:00,28.0,26.0,29.92,NW,315,0.0,0.0,94,0.00,,,0.00,Rainwise IP-100,2013-02-24 11:07:00,
2013-02-24 06:12:00,28.0,26.0,29.92,NW,315,0.0,0.0,94,0.00,,,0.00,Rainwise IP-100,2013-02-24 11:12:00,
2013-02-24 06:17:00,28.0,26.0,29.92,NW,315,0.0,1.0,94,0.00,,,0.00,Rainwise IP-100,2013-02-24 11:17:00,
2013-02-24 06:22:00,28.0,26.0,29.92,NW,315,0.0,1.0,94,0.00,,,0.00,Rainwise IP-100,2013-02-24 11:22:00,
2013-02-24 06:27:00,28.0,26.0,29.92,NW,315,0.0,0.0,94,0.00,,,0.00,Rainwise IP-100,2013-02-24 11:27:00,
2013-02-24 06:32:00,28.0,26.0,29.92,NW,315,0.0,0.0,94,0.00,,,0.00,Rainwise IP-100,2013-02-24 11:32:00,
2013-02-24 06:37:00,28.0,26.0,29.92,NW,315,0.0,0.0,94,0.00,,,0.00,Rainwise IP-100,2013-02-24 11:37:00,
2013-02-24 06:42:00,28.0,26.0,29.92,NW,315,0.0,0.0,94,0.00,,,0.00,Rainwise IP-100,2013-02-24 11:42:00,
2013-02-24 06:47:00,28.0,26.0,29.92,NW,315,0.0,0.0,94,0.00,,,0.00,Rainwise IP-100,2013-02-24 11:47:00,
2013-02-24 06:52:00,28.0,26.0,29.92,NW,315,0.0,0.0,94,0.00,,,0.00,Rainwise IP-100,2013-02-24 11:52:00,
2013-02-24 06:57:00,28.0,26.0,29.92,NW,315,0.0,0.0,94,0.00,,,0.00,Rainwise IP-100,2013-02-24 11:57:00,
2013-02-24 07:02:00,28.0,26.0,29.92,NW,315,0.0,0.0,94,0.00,,,0.00,Rainwise IP-100,2013-02-24 12:02:00,
2013-02-24 07:07:00,28.0,26.0,29.92,NW,315,0.0,0.0,94,0.00,,,0.00,Rainwise IP-100,2013-02-24 12:07:00,
2013-02-24 07:12:00,28.0,26.0,29.92,NW,315,0.0,0.0,94,0.00,,,0.00,Rainwise IP-100,2013-02-24 12:12:00,
2013-02-24 07:17:00,28.0,26.0,29.92,NW,315,0.0,0.0,94,0.00,,,0.00,Rainwise IP-100,2013-02-24 12:17:00,
2013-02-24 07:22:00,28.0,26.0,29.92,NW,315,0.0,0.0,94,0.00,,,0.00,Rainwise IP-100,2013-02-24 12:22:00,
2013-02-24 07:27:00,28.0,26.0,29.92,NW,315,0.0,0.0,94,0.00,,,0.00,Rainwise IP-100,2013-02-24 12:27:00,
2013-02-24 07:32:00,28.0,26.0,29.92,NW,315,0.0,0.0,94,0.00,,,0.00,Rainwise IP-100,2013-02-24 12:32:00,
2013-02-24 07:37:00,28.0,26.0,29.92,NW,315,0.0,0.0,94,0.00,,,0.00,Rainwise IP-100,2013-02-24 12:37:00,
2013-02-24 07:42:00,28.0,26.0,29.91,NW,315,0.0,0.0,94,0.00,,,0.00,Rainwise IP-100,2013-02-24 12:42:00,
2013-02-24 07:47:00,28.0,26.0,29.91,NW,315,0.0,0.0,94,0.00,,,0.00,Rainwise IP-100,2013-02-24 12:47:00,
2013-02-24 07:52:00,28.0,26.0,29.91,NW,315,0.0,0.0,94,0.00,,,0.00,Rainwise IP-100,2013-02-24 12:52:00,
2013-02-24 07:57:00,28.0,26.0,29.91,NW,315,0.0,0.0,94,0.00,,,0.00,Rainwise IP-100,2013-02-24 12:57:00,
2013-02-24 08:02:00,29.0,28.0,29.91,NW,315,0.0,0.0,94,0.00,,,0.00,Rainwise IP-100,2013-02-24 13:02:00,
2013-02-24 08:07:00,29.0,28.0,29.91,NW,315,0.0,0.0,94,0.00,,,0.00,Rainwise IP-100,2013-02-24 13:07:00,
2013-02-24 08:12:00,29.0,28.0,29.91,NW,315,0.0,0.0,94,0.00,,,0.00,Rainwise IP-100,2013-02-24 13:12:00,
2013-02-24 08:17:00,29.0,28.0,29.91,NW,315,0.0,0.0,94,0.00,,,0.00,Rainwise IP-100,2013-02-24 13:17:00,
2013-02-24 08:22:00,29.0,28.0,29.91,NW,315,0.0,0.0,94,0.00,,,0.00,Rainwise IP-100,2013-02-24 13:22:00,
2013-02-24 08:27:00,29.0,28.0,29.91,NW,315,0.0,0.0,94,0.00,,,0.00,Rainwise IP-100,2013-02-24 13:27:00,
2013-02-24 08:32:00,29.0,28.0,29.90,NW,315,0.0,0.0,94,0.00,,,0.00,Rainwise IP-100,2013-02-24 13:32:00,
2013-02-24 08:37:00,29.0,28.0,29.90,NW,315,0.0,0.0,94,0.00,,,0.00,Rainwise IP-100,2013-02-24 13:37:00,
2013-02-24 08:42:00,30.0,29.0,29.90,NW,315,0.0,0.0,95,0.00,,,0.00,Rainwise IP-100,2013-02-24 13:42:00,
2013-02-24 08:47:00,30.0,29.0,29.90,NW,315,0.0,0.0,95,0.00,,,0.00,Rainwise IP-100,2013-02-24 13:47:00,
2013-02-24 08:52:00,30.0,29.0,29.90,NW,315,0.0,0.0,95,0.00,,,0.00,Rainwise IP-100,2013-02-24 13:52:00,
2013-02-24 08:57:00,30.0,29.0,29.90,NW,315,0.0,0.0,95,0.00,,,0.00,Rainwise IP-100,2013-02-24 13:57:00,
2013-02-24 09:02:00,30.0,29.0,29.90,NW,315,0.0,0.0,95,0.00,,,0.00,Rainwise IP-100,2013-02-24 14:02:00,
2013-02-24 09:07:00,30.0,29.0,29.90,NW,315,0.0,0.0,95,0.00,,,0.00,Rainwise IP-100,2013-02-24 14:07:00,
2013-02-24 09:12:00,30.0,29.0,29.90,NW,315,0.0,0.0,95,0.00,,,0.00,Rainwise IP-100,2013-02-24 14:12:00,
2013-02-24 09:17:00,30.0,29.0,29.90,NW,315,0.0,0.0,95,0.00,,,0.00,Rainwise IP-100,2013-02-24 14:17:00,
2013-02-24 09:22:00,31.0,29.0,29.89,NW,315,0.0,0.0,95,0.00,,,0.00,Rainwise IP-100,2013-02-24 14:22:00,
2013-02-24 09:27:00,31.0,29.0,29.89,NW,315,0.0,0.0,95,0.00,,,0.00,Rainwise IP-100,2013-02-24 14:27:00,
2013-02-24 09:32:00,31.0,29.0,29.89,NW,315,0.0,0.0,95,0.00,,,0.00,Rainwise IP-100,2013-02-24 14:32:00,
2013-02-24 09:37:00,32.0,31.0,29.89,NW,315,0.0,0.0,95,0.00,,,0.00,Rainwise IP-100,2013-02-24 14:37:00,
2013-02-24 09:42:00,32.0,31.0,29.88,NW,315,0.0,0.0,95,0.00,,,0.00,Rainwise IP-100,2013-02-24 14:42:00,
2013-02-24 09:47:00,31.0,29.0,29.88,NW,315,0.0,0.0,95,0.00,,,0.00,Rainwise IP-100,2013-02-24 14:47:00,
2013-02-24 09:52:00,32.0,31.0,29.88,NW,315,0.0,0.0,95,0.00,,,0.00,Rainwise IP-100,2013-02-24 14:52:00,
2013-02-24 09:57:00,31.0,29.0,29.88,NW,315,0.0,0.0,95,0.00,,,0.00,Rainwise IP-100,2013-02-24 14:57:00,
2013-02-24 10:02:00,31.0,29.0,29.88,NNE,22,0.0,0.0,95,0.00,,,0.00,Rainwise IP-100,2013-02-24 15:02:00,
2013-02-24 10:07:00,31.0,29.0,29.88,NNE,22,0.0,2.0,95,0.00,,,0.00,Rainwise IP-100,2013-02-24 15:07:00,
2013-02-24 10:12:00,31.0,29.0,29.88,NNE,22,1.0,2.0,95,0.00,,,0.00,Rainwise IP-100,2013-02-24 15:12:00,
2013-02-24 10:17:00,31.0,29.0,29.88,NNE,22,1.0,2.0,95,0.00,,,0.00,Rainwise IP-100,2013-02-24 15:17:00,
2013-02-24 10:22:00,32.0,31.0,29.87,NNE,22,0.0,2.0,95,0.00,,,0.00,Rainwise IP-100,2013-02-24 15:22:00,
2013-02-24 10:27:00,32.0,31.0,29.87,NNE,22,3.0,3.0,95,0.00,,,0.00,Rainwise IP-100,2013-02-24 15:27:00,
2013-02-24 10:32:00,33.0,32.0,29.87,NNE,22,1.0,3.0,95,0.00,,,0.00,Rainwise IP-100,2013-02-24 15:32:00,
2013-02-24 10:37:00,33.0,32.0,29.87,NNE,22,0.0,2.0,95,0.00,,,0.00,Rainwise IP-100,2013-02-24 15:37:00,
2013-02-24 10:42:00,33.0,32.0,29.87,NNE,22,0.0,0.0,95,0.00,,,0.00,Rainwise IP-100,2013-02-24 15:42:00,
2013-02-24 10:47:00,33.0,32.0,29.87,NNE,22,1.0,1.0,95,0.00,,,0.00,Rainwise IP-100,2013-02-24 15:47:00,
2013-02-24 10:52:00,33.0,32.0,29.87,NNE,22,0.0,2.0,95,0.00,,,0.00,Rainwise IP-100,2013-02-24 15:52:00,
2013-02-24 10:57:00,33.0,32.0,29.87,NNE,22,0.0,1.0,95,0.00,,,0.00,Rainwise IP-100,2013-02-24 15:57:00,
2013-02-24 11:02:00,33.0,32.0,29.86,NNE,22,2.0,2.0,95,0.00,,,0.00,Rainwise IP-100,2013-02-24 16:02:00,
2013-02-24 11:07:00,33.0,32.0,29.86,NNE,22,0.0,3.0,95,0.00,,,0.00,Rainwise IP-100,2013-02-24 16:07:00,
2013-02-24 11:12:00,32.0,31.0,29.86,NNE,22,0.0,0.0,95,0.00,,,0.00,Rainwise IP-100,2013-02-24 16:12:00,
2013-02-24 11:17:00,32.0,31.0,29.87,NNE,22,0.0,1.0,95,0.00,,,0.00,Rainwise IP-100,2013-02-24 16:17:00,
2013-02-24 11:22:00,32.0,31.0,29.88,NNE,22,0.0,0.0,95,0.00,,,0.00,Rainwise IP-100,2013-02-24 16:22:00,
2013-02-24 11:27:00,32.0,31.0,29.88,NNE,22,0.0,1.0,95,0.00,,,0.00,Rainwise IP-100,2013-02-24 16:27:00,
2013-02-24 11:32:00,33.0,32.0,29.86,NNE,22,0.0,1.0,95,0.06,,,0.01,Rainwise IP-100,2013-02-24 16:32:00,
2013-02-24 11:37:00,33.0,32.0,29.86,NNE,22,0.0,1.0,95,0.12,,,0.02,Rainwise IP-100,2013-02-24 16:37:00,
2013-02-24 11:42:00,33.0,32.0,29.86,NNE,22,0.0,2.0,95,0.12,,,0.03,Rainwise IP-100,2013-02-24 16:42:00,
2013-02-24 11:47:00,33.0,32.0,29.86,NNE,22,0.0,1.0,95,0.06,,,0.03,Rainwise IP-100,2013-02-24 16:47:00,
2013-02-24 11:52:00,33.0,32.0,29.86,NNE,22,0.0,0.0,95,0.06,,,0.04,Rainwise IP-100,2013-02-24 16:52:00,
2013-02-24 11:57:00,33.0,32.0,29.86,NNE,22,0.0,1.0,95,0.06,,,0.05,Rainwise IP-100,2013-02-24 16:57:00,
2013-02-24 12:02:00,33.0,32.0,29.86,NNE,22,0.0,0.0,95,0.06,,,0.05,Rainwise IP-100,2013-02-24 17:02:00,
2013-02-24 12:07:00,33.0,32.0,29.86,NNE,22,1.0,1.0,95,0.12,,,0.06,Rainwise IP-100,2013-02-24 17:07:00,
2013-02-24 12:12:00,33.0,32.0,29.86,NNE,22,2.0,2.0,95,0.06,,,0.06,Rainwise IP-100,2013-02-24 17:12:00,
2013-02-24 12:17:00,33.0,32.0,29.86,NNE,22,1.0,3.0,95,0.00,,,0.06,Rainwise IP-100,2013-02-24 17:17:00,
2013-02-24 12:22:00,33.0,32.0,29.86,NNE,22,1.0,3.0,95,0.06,,,0.07,Rainwise IP-100,2013-02-24 17:22:00,
2013-02-24 12:27:00,33.0,32.0,29.86,NNE,22,2.0,3.0,95,0.06,,,0.07,Rainwise IP-100,2013-02-24 17:27:00,
2013-02-24 12:32:00,33.0,32.0,29.86,NNE,22,2.0,3.0,95,0.06,,,0.08,Rainwise IP-100,2013-02-24 17:32:00,
2013-02-24 12:37:00,33.0,32.0,29.86,NNE,22,2.0,3.0,95,0.06,,,0.08,Rainwise IP-100,2013-02-24 17:37:00,
2013-02-24 12:42:00,33.0,32.0,29.86,NE,45,2.0,4.0,95,0.00,,,0.08,Rainwise IP-100,2013-02-24 17:42:00,
2013-02-24 12:47:00,33.0,32.0,29.86,NE,45,4.0,5.0,95,0.06,,,0.09,Rainwise IP-100,2013-02-24 17:47:00,
2013-02-24 12:52:00,33.0,32.0,29.86,NE,45,3.0,5.0,95,0.06,,,0.09,Rainwise IP-100,2013-02-24 17:52:00,
2013-02-24 12:57:00,33.0,32.0,29.86,NE,45,2.0,4.0,95,0.00,,,0.09,Rainwise IP-100,2013-02-24 17:57:00,
2013-02-24 13:02:00,33.0,32.0,29.85,NE,45,1.0,4.0,95,0.00,,,0.09,Rainwise IP-100,2013-02-24 18:02:00,
2013-02-24 13:07:00,33.0,32.0,29.85,NE,45,3.0,5.0,95,0.00,,,0.09,Rainwise IP-100,2013-02-24 18:07:00,
2013-02-24 13:12:00,33.0,32.0,29.85,NE,45,4.0,5.0,95,0.06,,,0.10,Rainwise IP-100,2013-02-24 18:12:00,
2013-02-24 13:17:00,33.0,32.0,29.85,NE,45,4.0,6.0,95,0.06,,,0.10,Rainwise IP-100,2013-02-24 18:17:00,
2013-02-24 13:22:00,33.0,32.0,29.85,NE,45,3.0,6.0,95,0.00,,,0.10,Rainwise IP-100,2013-02-24 18:22:00,
2013-02-24 13:27:00,33.0,32.0,29.85,NE,45,4.0,6.0,95,0.00,,,0.10,Rainwise IP-100,2013-02-24 18:27:00,
2013-02-24 13:32:00,33.0,32.0,29.85,NE,45,3.0,6.0,95,0.00,,,0.10,Rainwise IP-100,2013-02-24 18:32:00,
2013-02-24 13:37:00,33.0,32.0,29.85,NE,45,4.0,5.0,95,0.06,,,0.11,Rainwise IP-100,2013-02-24 18:37:00,
2013-02-24 13:42:00,33.0,32.0,29.84,NE,45,4.0,6.0,95,0.06,,,0.11,Rainwise IP-100,2013-02-24 18:42:00,
2013-02-24 13:47:00,33.0,32.0,29.84,NE,45,3.0,6.0,95,0.00,,,0.11,Rainwise IP-100,2013-02-24 18:47:00,
2013-02-24 13:52:00,33.0,32.0,29.84,NE,45,4.0,5.0,95,0.00,,,0.11,Rainwise IP-100,2013-02-24 18:52:00,
2013-02-24 13:57:00,33.0,32.0,29.84,NE,45,3.0,5.0,95,0.00,,,0.11,Rainwise IP-100,2013-02-24 18:57:00,
2013-02-24 14:02:00,33.0,32.0,29.84,NE,45,1.0,5.0,95,0.00,,,0.11,Rainwise IP-100,2013-02-24 19:02:00,
2013-02-24 14:07:00,33.0,32.0,29.84,NE,45,1.0,3.0,95,0.00,,,0.11,Rainwise IP-100,2013-02-24 19:07:00,
2013-02-24 14:12:00,33.0,32.0,29.84,NE,45,1.0,4.0,95,0.00,,,0.11,Rainwise IP-100,2013-02-24 19:12:00,
2013-02-24 14:17:00,33.0,32.0,29.84,NE,45,3.0,5.0,95,0.06,,,0.12,Rainwise IP-100,2013-02-24 19:17:00,
2013-02-24 14:22:00,33.0,32.0,29.84,NE,45,4.0,5.0,95,0.06,,,0.12,Rainwise IP-100,2013-02-24 19:22:00,
2013-02-24 14:27:00,33.0,32.0,29.84,NE,45,2.0,5.0,95,0.00,,,0.12,Rainwise IP-100,2013-02-24 19:27:00,
2013-02-24 14:32:00,33.0,32.0,29.84,NE,45,3.0,5.0,95,0.00,,,0.12,Rainwise IP-100,2013-02-24 19:32:00,
2013-02-24 14:37:00,33.0,32.0,29.84,NE,45,2.0,4.0,95,0.00,,,0.12,Rainwise IP-100,2013-02-24 19:37:00,
2013-02-24 14:42:00,33.0,32.0,29.84,NE,45,3.0,4.0,95,0.00,,,0.12,Rainwise IP-100,2013-02-24 19:42:00,
2013-02-24 14:47:00,33.0,32.0,29.84,NE,45,2.0,4.0,95,0.00,,,0.12,Rainwise IP-100,2013-02-24 19:47:00,
2013-02-24 14:52:00,33.0,32.0,29.84,NE,45,4.0,4.0,95,0.00,,,0.12,Rainwise IP-100,2013-02-24 19:52:00,
2013-02-24 14:57:00,33.0,32.0,29.84,NE,45,2.0,4.0,95,0.00,,,0.12,Rainwise IP-100,2013-02-24 19:57:00,
2013-02-24 15:02:00,33.0,32.0,29.84,NE,45,2.0,3.0,95,0.00,,,0.12,Rainwise IP-100,2013-02-24 20:02:00,
2013-02-24 15:07:00,33.0,32.0,29.84,NE,45,1.0,3.0,95,0.00,,,0.12,Rainwise IP-100,2013-02-24 20:07:00,
2013-02-24 15:12:00,33.0,32.0,29.85,NE,45,1.0,2.0,95,0.00,,,0.12,Rainwise IP-100,2013-02-24 20:12:00,
2013-02-24 15:17:00,33.0,32.0,29.85,North,360,2.0,6.0,95,0.00,,,0.12,Rainwise IP-100,2013-02-24 20:17:00,
2013-02-24 15:22:00,32.0,31.0,29.86,NNW,337,3.0,9.0,95,0.00,,,0.12,Rainwise IP-100,2013-02-24 20:22:00,
2013-02-24 15:27:00,32.0,31.0,29.86,NNW,337,5.0,9.0,95,0.00,,,0.12,Rainwise IP-100,2013-02-24 20:27:00,
2013-02-24 15:32:00,32.0,31.0,29.86,NW,315,7.0,7.0,95,0.00,,,0.12,Rainwise IP-100,2013-02-24 20:32:00,
2013-02-24 15:37:00,31.0,29.0,29.86,NNW,337,8.0,9.0,95,0.00,,,0.12,Rainwise IP-100,2013-02-24 20:37:00,
2013-02-24 15:42:00,31.0,29.0,29.86,NNW,337,6.0,13.0,95,0.00,,,0.12,Rainwise IP-100,2013-02-24 20:42:00,
2013-02-24 15:47:00,31.0,29.0,29.86,NNW,337,7.0,12.0,95,0.00,,,0.12,Rainwise IP-100,2013-02-24 20:47:00,
2013-02-24 15:52:00,31.0,29.0,29.86,NNW,337,8.0,13.0,95,0.00,,,0.12,Rainwise IP-100,2013-02-24 20:52:00,
2013-02-24 15:57:00,30.0,29.0,29.86,NW,315,7.0,12.0,95,0.00,,,0.12,Rainwise IP-100,2013-02-24 20:57:00,
2013-02-24 16:02:00,30.0,29.0,29.87,NW,315,13.0,16.0,95,0.00,,,0.12,Rainwise IP-100,2013-02-24 21:02:00,
2013-02-24 16:07:00,30.0,29.0,29.87,NW,315,9.0,16.0,95,0.00,,,0.12,Rainwise IP-100,2013-02-24 21:07:00,
2013-02-24 16:12:00,30.0,29.0,29.87,NNW,337,5.0,11.0,95,0.00,,,0.12,Rainwise IP-100,2013-02-24 21:12:00,
2013-02-24 16:17:00,30.0,29.0,29.87,NNW,337,9.0,12.0,95,0.00,,,0.12,Rainwise IP-100,2013-02-24 21:17:00,
2013-02-24 16:22:00,30.0,29.0,29.88,NNW,337,6.0,12.0,95,0.00,,,0.12,Rainwise IP-100,2013-02-24 21:22:00,
2013-02-24 16:27:00,30.0,29.0,29.88,NNW,337,4.0,10.0,95,0.00,,,0.12,Rainwise IP-100,2013-02-24 21:27:00,
2013-02-24 16:32:00,30.0,29.0,29.88,NNW,337,5.0,7.0,95,0.00,,,0.12,Rainwise IP-100,2013-02-24 21:32:00,
2013-02-24 16:37:00,30.0,29.0,29.88,North,360,2.0,6.0,95,0.00,,,0.12,Rainwise IP-100,2013-02-24 21:37:00,
2013-02-24 16:42:00,30.0,29.0,29.88,NNW,337,2.0,6.0,95,0.00,,,0.12,Rainwise IP-100,2013-02-24 21:42:00,
2013-02-24 16:47:00,30.0,29.0,29.88,North,360,5.0,9.0,95,0.00,,,0.12,Rainwise IP-100,2013-02-24 21:47:00,
2013-02-24 16:52:00,30.0,29.0,29.88,NNE,22,5.0,7.0,95,0.00,,,0.12,Rainwise IP-100,2013-02-24 21:52:00,
2013-02-24 16:57:00,29.0,28.0,29.88,NNW,337,1.0,6.0,94,0.00,,,0.12,Rainwise IP-100,2013-02-24 21:57:00,
2013-02-24 17:02:00,30.0,29.0,29.89,North,360,4.0,6.0,95,0.00,,,0.12,Rainwise IP-100,2013-02-24 22:02:00,
2013-02-24 17:07:00,29.0,28.0,29.89,North,360,1.0,5.0,94,0.00,,,0.12,Rainwise IP-100,2013-02-24 22:07:00,
2013-02-24 17:12:00,29.0,28.0,29.90,NNE,22,2.0,5.0,94,0.00,,,0.12,Rainwise IP-100,2013-02-24 22:12:00,
2013-02-24 17:17:00,29.0,28.0,29.90,NE,45,2.0,5.0,94,0.00,,,0.12,Rainwise IP-100,2013-02-24 22:17:00,
2013-02-24 17:22:00,29.0,28.0,29.90,NE,45,3.0,5.0,94,0.00,,,0.12,Rainwise IP-100,2013-02-24 22:22:00,
2013-02-24 17:27:00,29.0,28.0,29.90,NNE,22,2.0,5.0,94,0.00,,,0.12,Rainwise IP-100,2013-02-24 22:27:00,
2013-02-24 17:32:00,29.0,28.0,29.90,NNE,22,1.0,4.0,94,0.00,,,0.12,Rainwise IP-100,2013-02-24 22:32:00,
2013-02-24 17:37:00,29.0,28.0,29.90,NNE,22,0.0,2.0,94,0.00,,,0.12,Rainwise IP-100,2013-02-24 22:37:00,
2013-02-24 17:42:00,29.0,28.0,29.91,NNE,22,1.0,2.0,94,0.00,,,0.12,Rainwise IP-100,2013-02-24 22:42:00,
2013-02-24 17:47:00,29.0,28.0,29.91,NNE,22,0.0,3.0,94,0.00,,,0.12,Rainwise IP-100,2013-02-24 22:47:00,
2013-02-24 17:52:00,29.0,28.0,29.91,NNE,22,2.0,2.0,94,0.00,,,0.12,Rainwise IP-100,2013-02-24 22:52:00,
2013-02-24 17:57:00,29.0,28.0,29.91,NNE,22,0.0,2.0,94,0.00,,,0.12,Rainwise IP-100,2013-02-24 22:57:00,
2013-02-24 18:02:00,29.0,28.0,29.91,NNE,22,0.0,2.0,94,0.00,,,0.12,Rainwise IP-100,2013-02-24 23:02:00,
2013-02-24 18:07:00,28.0,26.0,29.91,North,360,4.0,4.0,94,0.00,,,0.12,Rainwise IP-100,2013-02-24 23:07:00,
2013-02-24 18:12:00,29.0,28.0,29.92,NNW,337,5.0,8.0,94,0.00,,,0.12,Rainwise IP-100,2013-02-24 23:12:00,
2013-02-24 18:17:00,29.0,28.0,29.92,NNE,22,0.0,5.0,94,0.00,,,0.12,Rainwise IP-100,2013-02-24 23:17:00,
2013-02-24 18:22:00,29.0,28.0,29.92,NNE,22,1.0,2.0,94,0.00,,,0.12,Rainwise IP-100,2013-02-24 23:22:00,
2013-02-24 18:27:00,28.0,26.0,29.92,North,360,3.0,6.0,94,0.00,,,0.12,Rainwise IP-100,2013-02-24 23:27:00,
2013-02-24 18:32:00,29.0,28.0,29.93,NW,315,3.0,6.0,94,0.00,,,0.12,Rainwise IP-100,2013-02-24 23:32:00,
2013-02-24 18:37:00,29.0,28.0,29.93,NW,315,3.0,5.0,94,0.00,,,0.12,Rainwise IP-100,2013-02-24 23:37:00,
2013-02-24 18:42:00,29.0,28.0,29.94,NW,315,2.0,5.0,94,0.00,,,0.12,Rainwise IP-100,2013-02-24 23:42:00,
2013-02-24 18:47:00,28.0,26.0,29.94,NW,315,0.0,4.0,94,0.00,,,0.12,Rainwise IP-100,2013-02-24 23:47:00,
2013-02-24 18:52:00,29.0,28.0,29.94,NW,315,3.0,4.0,94,0.00,,,0.12,Rainwise IP-100,2013-02-24 23:52:00,
2013-02-24 18:57:00,28.0,26.0,29.94,NW,315,2.0,5.0,94,0.00,,,0.12,Rainwise IP-100,2013-02-24 23:57:00,
2013-02-24 19:02:00,29.0,28.0,29.94,NW,315,0.0,4.0,94,0.00,,,0.12,Rainwise IP-100,2013-02-25 00:02:00,
2013-02-24 19:07:00,28.0,26.0,29.94,NNE,22,3.0,5.0,94,0.00,,,0.12,Rainwise IP-100,2013-02-25 00:07:00,
2013-02-24 19:12:00,28.0,26.0,29.95,North,360,2.0,6.0,94,0.00,,,0.12,Rainwise IP-100,2013-02-25 00:12:00,
2013-02-24 19:17:00,28.0,26.0,29.95,NNE,22,4.0,6.0,94,0.00,,,0.12,Rainwise IP-100,2013-02-25 00:17:00,
2013-02-24 19:22:00,28.0,26.0,29.96,NE,45,5.0,7.0,94,0.00,,,0.12,Rainwise IP-100,2013-02-25 00:22:00,
2013-02-24 19:27:00,28.0,26.0,29.96,NE,45,4.0,6.0,94,0.00,,,0.12,Rainwise IP-100,2013-02-25 00:27:00,
2013-02-24 19:32:00,28.0,26.0,29.96,East,90,5.0,6.0,94,0.00,,,0.12,Rainwise IP-100,2013-02-25 00:32:00,
2013-02-24 19:37:00,28.0,26.0,29.96,East,90,2.0,6.0,94,0.00,,,0.12,Rainwise IP-100,2013-02-25 00:37:00,
2013-02-24 19:42:00,28.0,26.0,29.96,East,90,0.0,3.0,94,0.00,,,0.12,Rainwise IP-100,2013-02-25 00:42:00,
2013-02-24 19:47:00,28.0,26.0,29.96,East,90,2.0,2.0,94,0.00,,,0.12,Rainwise IP-100,2013-02-25 00:47:00,
2013-02-24 19:52:00,28.0,26.0,29.96,NNE,22,1.0,6.0,94,0.00,,,0.12,Rainwise IP-100,2013-02-25 00:52:00,
2013-02-24 19:57:00,28.0,26.0,29.96,NE,45,3.0,5.0,94,0.00,,,0.12,Rainwise IP-100,2013-02-25 00:57:00,
2013-02-24 20:02:00,28.0,26.0,29.97,NNE,22,2.0,9.0,94,0.00,,,0.12,Rainwise IP-100,2013-02-25 01:02:00,
2013-02-24 20:07:00,28.0,26.0,29.97,East,90,3.0,6.0,94,0.00,,,0.12,Rainwise IP-100,2013-02-25 01:07:00,
2013-02-24 20:12:00,28.0,26.0,29.97,North,360,2.0,6.0,94,0.00,,,0.12,Rainwise IP-100,2013-02-25 01:12:00,
2013-02-24 20:17:00,28.0,26.0,29.97,North,360,0.0,5.0,94,0.00,,,0.12,Rainwise IP-100,2013-02-25 01:17:00,
2013-02-24 20:22:00,28.0,26.0,29.97,ENE,67,0.0,4.0,94,0.00,,,0.12,Rainwise IP-100,2013-02-25 01:22:00,
2013-02-24 20:27:00,28.0,26.0,29.97,ENE,67,2.0,5.0,94,0.00,,,0.12,Rainwise IP-100,2013-02-25 01:27:00,
2013-02-24 20:32:00,28.0,26.0,29.98,NNE,22,0.0,4.0,94,0.00,,,0.12,Rainwise IP-100,2013-02-25 01:32:00,
2013-02-24 20:37:00,28.0,26.0,29.98,NE,45,4.0,4.0,94,0.00,,,0.12,Rainwise IP-100,2013-02-25 01:37:00,
2013-02-24 20:42:00,28.0,26.0,29.98,NE,45,1.0,5.0,94,0.00,,,0.12,Rainwise IP-100,2013-02-25 01:42:00,
2013-02-24 20:47:00,28.0,26.0,29.98,NW,315,0.0,4.0,94,0.00,,,0.12,Rainwise IP-100,2013-02-25 01:47:00,
2013-02-24 20:52:00,28.0,26.0,29.98,NW,315,1.0,2.0,94,0.00,,,0.12,Rainwise IP-100,2013-02-25 01:52:00,
2013-02-24 20:57:00,27.0,26.0,29.98,NW,315,0.0,2.0,94,0.00,,,0.12,Rainwise IP-100,2013-02-25 01:57:00,
2013-02-24 21:02:00,28.0,26.0,29.98,NW,315,1.0,3.0,94,0.00,,,0.12,Rainwise IP-100,2013-02-25 02:02:00,
2013-02-24 21:07:00,27.0,26.0,29.98,NW,315,0.0,1.0,94,0.00,,,0.12,Rainwise IP-100,2013-02-25 02:07:00,
2013-02-24 21:12:00,28.0,26.0,29.99,NNE,22,0.0,3.0,94,0.00,,,0.12,Rainwise IP-100,2013-02-25 02:12:00,
2013-02-24 21:17:00,28.0,26.0,29.99,NNE,22,1.0,1.0,94,0.00,,,0.12,Rainwise IP-100,2013-02-25 02:17:00,
2013-02-24 21:22:00,28.0,26.0,29.99,East,90,0.0,5.0,94,0.00,,,0.12,Rainwise IP-100,2013-02-25 02:22:00,
2013-02-24 21:27:00,28.0,26.0,29.99,East,90,0.0,1.0,94,0.00,,,0.12,Rainwise IP-100,2013-02-25 02:27:00,
2013-02-24 21:32:00,28.0,26.0,29.99,East,90,1.0,2.0,94,0.00,,,0.12,Rainwise IP-100,2013-02-25 02:32:00,
2013-02-24 21:37:00,28.0,26.0,29.99,East,90,0.0,3.0,94,0.00,,,0.12,Rainwise IP-100,2013-02-25 02:37:00,
2013-02-24 21:42:00,28.0,26.0,29.99,WNW,292,3.0,4.0,94,0.00,,,0.12,Rainwise IP-100,2013-02-25 02:42:00,
2013-02-24 21:47:00,28.0,26.0,29.99,WNW,292,0.0,5.0,94,0.00,,,0.12,Rainwise IP-100,2013-02-25 02:47:00,
2013-02-24 21:52:00,28.0,26.0,29.99,NE,45,2.0,2.0,94,0.00,,,0.12,Rainwise IP-100,2013-02-25 02:52:00,
2013-02-24 21:57:00,28.0,26.0,29.99,ENE,67,2.0,5.0,94,0.00,,,0.12,Rainwise IP-100,2013-02-25 02:57:00,
2013-02-24 22:02:00,28.0,26.0,29.99,NE,45,0.0,5.0,94,0.00,,,0.12,Rainwise IP-100,2013-02-25 03:02:00,
2013-02-24 22:07:00,28.0,26.0,29.99,NE,45,0.0,3.0,94,0.00,,,0.12,Rainwise IP-100,2013-02-25 03:07:00,
2013-02-24 22:12:00,28.0,26.0,29.99,North,360,6.0,8.0,94,0.00,,,0.12,Rainwise IP-100,2013-02-25 03:12:00,
2013-02-24 22:17:00,28.0,26.0,29.99,NNW,337,9.0,11.0,94,0.00,,,0.12,Rainwise IP-100,2013-02-25 03:17:00,
2013-02-24 22:22:00,29.0,28.0,29.99,North,360,6.0,14.0,94,0.00,,,0.12,Rainwise IP-100,2013-02-25 03:22:00,
2013-02-24 22:27:00,29.0,28.0,29.99,NW,315,7.0,12.0,94,0.00,,,0.12,Rainwise IP-100,2013-02-25 03:27:00,
2013-02-24 22:32:00,29.0,28.0,29.99,NNW,337,7.0,13.0,94,0.00,,,0.12,Rainwise IP-100,2013-02-25 03:32:00,
2013-02-24 22:37:00,29.0,28.0,29.99,North,360,5.0,11.0,94,0.00,,,0.12,Rainwise IP-100,2013-02-25 03:37:00,
2013-02-24 22:42:00,29.0,28.0,29.99,NNW,337,7.0,7.0,94,0.00,,,0.12,Rainwise IP-100,2013-02-25 03:42:00,
2013-02-24 22:47:00,28.0,26.0,30.00,NNW,337,4.0,7.0,94,0.00,,,0.12,Rainwise IP-100,2013-02-25 03:47:00,
2013-02-24 22:52:00,29.0,28.0,30.00,NNW,337,6.0,10.0,94,0.00,,,0.12,Rainwise IP-100,2013-02-25 03:52:00,
2013-02-24 22:57:00,28.0,26.0,30.00,NNW,337,4.0,6.0,94,0.00,,,0.12,Rainwise IP-100,2013-02-25 03:57:00,
2013-02-24 23:02:00,28.0,26.0,30.01,NE,45,3.0,9.0,94,0.00,,,0.12,Rainwise IP-100,2013-02-25 04:02:00,
2013-02-24 23:07:00,28.0,26.0,30.01,NW,315,6.0,9.0,94,0.00,,,0.12,Rainwise IP-100,2013-02-25 04:07:00,
2013-02-24 23:12:00,28.0,26.0,30.01,NNW,337,8.0,10.0,94,0.00,,,0.12,Rainwise IP-100,2013-02-25 04:12:00,
2013-02-24 23:17:00,28.0,26.0,30.01,NW,315,6.0,10.0,94,0.00,,,0.12,Rainwise IP-100,2013-02-25 04:17:00,
2013-02-24 23:22:00,28.0,26.0,30.01,North,360,6.0,9.0,94,0.00,,,0.12,Rainwise IP-100,2013-02-25 04:22:00,
2013-02-24 23:27:00,28.0,26.0,30.01,NNW,337,9.0,10.0,94,0.00,,,0.12,Rainwise IP-100,2013-02-25 04:27:00,
2013-02-24 23:32:00,28.0,26.0,30.01,NW,315,13.0,13.0,94,0.00,,,0.12,Rainwise IP-100,2013-02-25 04:32:00,
2013-02-24 23:37:00,28.0,26.0,30.01,NW,315,4.0,13.0,94,0.00,,,0.12,Rainwise IP-100,2013-02-25 04:37:00,
2013-02-24 23:42:00,28.0,26.0,30.01,NNW,337,9.0,10.0,94,0.00,,,0.12,Rainwise IP-100,2013-02-25 04:42:00,
2013-02-24 23:47:00,28.0,26.0,30.01,NNW,337,6.0,13.0,94,0.00,,,0.12,Rainwise IP-100,2013-02-25 04:47:00,
2013-02-24 23:52:00,28.0,26.0,30.02,NNW,337,7.0,10.0,94,0.00,,,0.12,Rainwise IP-100,2013-02-25 04:52:00,
2013-02-24 23:57:00,28.0,26.0,30.02,NNW,337,3.0,13.0,94,0.00,,,0.12,Rainwise IP-100,2013-02-25 04:57:00,